File timestamp: Fri Aug 19 02:00:00 2016, Internal temp: 17.852783203125
1471572001, -0.0629657804965973, -0.0112540349364281, 0.0104221673682332, 33696, 32567, 23204, 117.75057220459
1471572002, -0.0600255206227303, -0.0112308170646429, 0.0108407512307167, 33698, 32584, 23188, NaN
1471572003, -0.0561111308634281, -0.0109776929020882, 0.0102015249431133, 33694, 32576, 23198, NaN
1471572003, -0.0514466539025307, -0.010779295116663, 0.010955024510622, 33693, 32577, 23217, NaN
1471572004.004, -0.0462347492575645, -0.0107898898422718, 0.0107164578512311, 33702, 32572, 23202, NaN
1471572005.004, -0.040656965225935, -0.0113806528970599, 0.00981361325830221, 33690, 32582, 23192, NaN
1471572006.004, -0.0348741337656975, -0.0112247783690691, 0.00932380743324757, 33685, 32578, 23212, NaN
1471572007.004, -0.0290270205587149, -0.0117269409820437, 0.00979518238455057, 33687, 32583, 23205, NaN
1471572008.004, -0.0232370663434267, -0.0122691066935658, 0.00973119400441647, 33671, 32587, 23205, NaN
1471572009.014, -0.0176073163747787, -0.0119923399761319, 0.00907682441174984, 33690, 32566, 23203, NaN
1471572010.014, -0.0122234420850873, -0.0124621745198965, 0.00984077528119087, 33692, 32573, 23208, NaN
1471572011.014, -0.00715485261753201, -0.0120566207915545, 0.00977130886167288, 33694, 32582, 23197, NaN
1471572012.014, -0.00245588691905141, -0.0118932416662574, 0.00969143118709326, 33684, 32571, 23193, NaN
1471572012.014, 0.00183295400347561, -0.0120861893519759, 0.00917619373649359, 33706, 32584, 23199, NaN
1471572013.02, 0.00568374386057258, -0.0118906768038869, 0.00894797965884209, 33684, 32587, 23198, NaN
1471572014.02, 0.00907985586673021, -0.0109556596726179, 0.00954924058169127, 33699, 32573, 23198, NaN
1471572015.02, 0.0120147000998259, -0.0109790805727243, 0.0104037011042237, 33691, 32582, 23201, NaN
1471572016.02, 0.0144904740154743, -0.0110422456637025, 0.0102878119796515, 33699, 32579, 23205, NaN
1471572016.02, 0.0165169555693865, -0.0108820656314492, 0.0105379614979029, 33686, 32584, 23201, NaN
1471572017.022, 0.0171527676284313, -0.0105261551216245, 0.0101526798680425, 33691, 32584, 23205, NaN
1471572018.022, 0.0156867485493422, -0.0104128746315837, 0.0112932985648513, 33693, 32577, 23206, NaN
1471572019.032, 0.0127030964940786, -0.0107347210869193, 0.0113563146442175, 33699, 32589, 23196, NaN
1471572020.032, 0.0104058654978871, -0.0112083340063691, 0.0114163514226675, 33685, 32582, 23202, NaN
1471572021.032, 0.00794247817248106, -0.0112026911228895, 0.0111985830590129, 33695, 32580, 23194, NaN
1471572022.032, 0.00474097346886992, -0.0102632902562618, 0.0109789073467255, 33690, 32582, 23209, NaN
1471572023.032, 0.00210539204999804, -0.0106261875480413, 0.0106134712696075, 33691, 32585, 23191, NaN
1471572024.032, -0.000202169685508125, -0.0105704991146922, 0.010059998370707, 33694, 32578, 23190, NaN
1471572025.032, -0.00235913717187941, -0.0101426150649786, 0.0105148022994399, 33700, 32576, 23199, NaN
1471572026.032, -0.00418350147083402, -0.0101164076477289, 0.0107749346643686, 33685, 32583, 23202, NaN
1471572027.032, -0.0051369545981288, -0.0100354850292206, 0.0108443461358547, 33693, 32575, 23198, NaN
1471572028.032, -0.0059009650722146, -0.00903948303312063, 0.0108274854719639, 33687, 32587, 23203, NaN
1471572029.032, -0.00620245421305299, -0.00901399459689856, 0.0107637504115701, 33691, 32584, 23198, NaN
1471572030.032, -0.0061827483586967, -0.00936874002218246, 0.0103438096120954, 33695, 32572, 23204, NaN
1471572031.042, -0.00446056108921766, -0.00885611958801746, 0.0105728795751929, 33695, 32584, 23201, NaN
1471572032.042, -0.00246807374060154, -0.00904819928109646, 0.0103346109390259, 33700, 32578, 23210, NaN
1471572033.042, -0.000295342004392296, -0.00898335129022598, 0.010126207023859, 33686, 32585, 23205, NaN
1471572034.042, 0.00166741560678929, -0.00932079367339611, 0.00945231784135103, 33692, 32573, 23200, NaN
1471572035.042, 0.00421444745734334, -0.00948855467140675, 0.00940314587205648, 33700, 32576, 23202, NaN
1471572036.042, 0.00752699095755816, -0.0100215477868915, 0.00969747826457024, 33685, 32577, 23202, NaN
1471572037.042, 0.01235883962363, -0.0101031772792339, 0.00947766657918692, 33685, 32579, 23209, NaN
1471572038.042, 0.0167222544550896, -0.0101084420457482, 0.00966205541044474, 33690, 32572, 23205, NaN
1471572039.042, 0.0196853317320347, -0.0101603269577026, 0.0098564438521862, 33684, 32586, 23205, NaN
1471572040.042, 0.0212104693055153, -0.0103261535987258, 0.0105841383337975, 33710, 32568, 23206, NaN
1471572041.042, 0.0223537907004356, -0.00882874988019466, 0.010098610073328, 33688, 32564, 23186, NaN
1471572042.042, 0.024636784568429, -0.00947118457406759, 0.00895370822399855, 33709, 32576, 23203, NaN
1471572043.052, 0.0271763224154711, -0.00980312190949917, 0.0084847453981638, 33688, 32590, 23200, NaN
1471572044.052, 0.0286532640457153, -0.0102841006591916, 0.00904887076467276, 33686, 32579, 23209, NaN
1471572044.052, 0.0307433903217316, -0.0106523605063558, 0.00971049070358276, 33682, 32587, 23210, NaN
1471572045.06, 0.0325773395597935, -0.0103008458390832, 0.0105942590162158, 33688, 32575, 23203, NaN
1471572046.06, 0.0341340713202953, -0.0112292133271694, 0.0103805093094707, 33696, 32581, 23197, NaN
1471572047.06, 0.0346053950488567, -0.0112185450270772, 0.0099150575697422, 33682, 32584, 23209, NaN
1471572048.06, 0.0341572612524033, -0.0110941678285599, 0.0102017186582088, 33685, 32570, 23197, NaN
1471572049.06, 0.0326775684952736, -0.0108338184654713, 0.00985712464898825, 33695, 32572, 23205, NaN
1471572050.06, 0.0302921794354916, -0.010743236169219, 0.00991282518953085, 33700, 32574, 23194, NaN
1471572051.06, 0.0276685580611229, -0.0112443268299103, 0.0088776983320713, 33694, 32584, 23204, NaN
1471572052.06, 0.0251001194119453, -0.0117145264521241, 0.00860680360347033, 33684, 32583, 23209, NaN
1471572053.06, 0.0222008191049099, -0.0112964604049921, 0.00872546434402466, 33699, 32570, 23197, NaN
1471572053.06, 0.017833661288023, -0.0110460687428713, 0.00874033942818642, 33694, 32585, 23199, NaN
1471572054.068, 0.0129340523853898, -0.0108614889904857, 0.00917692761868238, 33696, 32573, 23196, NaN
1471572055.068, 0.0093882167711854, -0.0111930659040809, 0.0094788670539856, 33668, 32586, 23214, NaN
1471572056.068, 0.00556849222630262, -0.0109439445659518, 0.00917055085301399, 33696, 32574, 23206, 117.98405456543
1471572057.068, 0.00189294503070414, -0.0108649823814631, 0.00889504700899124, 33686, 32578, 23202, NaN
1471572057.068, -0.00162067508790642, -0.0113305384293199, 0.00889110285788774, 33683, 32580, 23204, NaN
1471572058.072, -0.00457061175256968, -0.0114002013579011, 0.00901333428919315, 33690, 32592, 23207, NaN
1471572059.072, -0.00757423834875226, -0.0114975366741419, 0.00974227953702211, 33706, 32574, 23195, NaN
1471572060.072, -0.0111381579190493, -0.0112731819972396, 0.00926780328154564, 33693, 32573, 23204, NaN
1471572061.072, -0.0146424258127809, -0.0112024741247296, 0.00914414972066879, 33685, 32570, 23206, NaN
1471572062.072, -0.0177448317408562, -0.0112850246950984, 0.00873499643057585, 33682, 32576, 23208, NaN
1471572063.072, -0.0193740576505661, -0.0117979170754552, 0.00805900152772665, 33681, 32580, 23204, NaN
1471572064.082, -0.0197519883513451, -0.0116630466654897, 0.00785620789974928, 33686, 32581, 23205, NaN
1471572065.082, -0.0210036803036928, -0.0117908325046301, 0.00839398615062237, 33684, 32574, 23208, NaN
1471572066.082, -0.0216416697949171, -0.0119421947747469, 0.008692123927176, 33694, 32562, 23199, NaN
1471572066.082, -0.0215082112699747, -0.0114325918257236, 0.00849776901304722, 33694, 32573, 23190, NaN
1471572067.088, -0.0213707815855742, -0.0113940211012959, 0.00815343391150236, 33692, 32575, 23205, NaN
1471572068.088, -0.0223033148795366, -0.0117903258651495, 0.00742277363315225, 33686, 32577, 23202, NaN
1471572069.088, -0.0228132884949446, -0.0126318708062172, 0.00782734714448452, 33689, 32581, 23191, NaN
1471572070.088, -0.0201007276773453, -0.0130108892917633, 0.00704530300572515, 33679, 32581, 23206, NaN
1471572070.088, -0.0132192196324468, -0.0129819372668862, 0.00662017473950982, 33690, 32584, 23195, NaN
1471572071.09, -0.00273708743043244, -0.0127776386216283, 0.00602335715666413, 33696, 32584, 23190, NaN
1471572072.09, 0.0104119405150414, -0.0122035285457969, 0.00660371500998735, 33693, 32575, 23207, NaN
1471572073.1, 0.0256307292729616, -0.0126815279945731, 0.00606140773743391, 33698, 32579, 23197, NaN
1471572074.1, 0.0428613051772118, -0.012284966185689, 0.00612361077219248, 33676, 32583, 23207, NaN
1471572074.1, 0.0593392960727215, -0.0124554559588432, 0.00618863990530372, 33696, 32589, 23202, NaN
1471572075.108, 0.0450044088065624, -0.0130080580711365, 0.00557846250012517, 33685, 32573, 23206, NaN
1471572076.108, 0.024938678368926, -0.0126054221764207, 0.00620509404689074, 33706, 32574, 23196, NaN
1471572077.108, 0.00821814965456724, -0.0122888162732124, 0.00562069192528725, 33686, 32588, 23206, NaN
1471572078.108, -0.00546326860785484, -0.0129945734515786, 0.00476199435070157, 33705, 32577, 23204, NaN
1471572079.108, -0.0164018049836159, -0.0126381777226925, 0.00495200837031007, 33701, 32582, 23193, NaN
1471572080.108, -0.0248828083276749, -0.0123491222038865, 0.00384151842445135, 33692, 32565, 23198, NaN
1471572081.108, -0.0311797633767128, -0.012223313562572, 0.00333348335698247, 33708, 32573, 23190, NaN
1471572082.108, -0.0355533584952354, -0.0128810163587332, 0.00259503838606179, 33695, 32577, 23195, NaN
1471572083.108, -0.0382506512105465, -0.012329475954175, 0.00247875787317753, 33692, 32576, 23205, NaN
1471572084.118, -0.0395043641328812, -0.0120717771351337, 0.00210272404365242, 33690, 32578, 23206, NaN
1471572085.118, -0.0395323000848293, -0.0119791533797979, 0.00207575550302863, 33688, 32573, 23217, NaN
1471572086.118, -0.0385369323194027, -0.0122829768806696, 0.00224059028550982, 33682, 32573, 23205, NaN
1471572087.118, -0.0367051139473915, -0.0136779397726059, 0.00253777415491641, 33695, 32574, 23208, NaN
1471572088.118, -0.0342079810798168, -0.0134553536772728, 0.00272744474932551, 33679, 32574, 23207, NaN
1471572089.118, -0.031200984492898, -0.0132916681468487, 0.00230393814854324, 33684, 32582, 23200, NaN
1471572090.118, -0.0278240591287613, -0.0134746823459864, 0.00210594944655895, 33691, 32586, 23195, NaN
1471572091.118, -0.0242019463330507, -0.013393223285675, 0.00232856860384345, 33712, 32566, 23184, NaN
1471572092.118, -0.0204446334391832, -0.0122340489178896, 0.00290662632323802, 33694, 32573, 23204, NaN
1471572093.118, -0.0166478883475065, -0.012649736367166, 0.00341656384989619, 33694, 32593, 23199, NaN
1471572094.118, -0.0128939086571336, -0.0119334878399968, 0.00306789367459714, 33692, 32576, 23204, NaN
1471572095.118, -0.00925203505903482, -0.0118848625570536, 0.00303074019029737, 33684, 32575, 23201, NaN
1471572096.128, -0.0057795480825007, -0.0116708753630519, 0.00312418793328106, 33682, 32568, 23210, NaN
1471572097.128, -0.00252249813638628, -0.011720784008503, 0.00387082993984222, 33694, 32582, 23202, NaN
1471572097.128, 0.000483417737996206, -0.0120188891887665, 0.00422237254679203, 33686, 32575, 23208, NaN
1471572098.136, 0.00321195973083377, -0.0115151219069958, 0.00385002535767853, 33691, 32573, 23205, NaN
1471572099.136, 0.00564543763175607, -0.0116841066628695, 0.00337501289322972, 33706, 32586, 23195, NaN
1471572100.136, 0.0077738044783473, -0.0121464552357793, 0.00366138806566596, 33693, 32574, 23204, NaN
1471572101.136, 0.00959376432001591, -0.012561809271574, 0.00402570934966207, 33689, 32567, 23199, NaN
1471572102.136, 0.0111079001799226, -0.0123564135283232, 0.00390696199610829, 33698, 32574, 23201, NaN
1471572103.136, 0.0123238312080503, -0.0123154735192657, 0.00442030653357506, 33692, 32581, 23195, NaN
1471572104.136, 0.0132534150034189, -0.0124653428792953, 0.00422816257923841, 33692, 32571, 23194, NaN
1471572105.136, 0.0129220690578222, -0.0124034648761153, 0.00450639147311449, 33690, 32576, 23200, NaN
1471572106.136, 0.0108432751148939, -0.0134557792916894, 0.00447487458586693, 33691, 32583, 23201, NaN
1471572106.136, 0.00817717518657446, -0.0135270450264215, 0.00511522637680173, 33695, 32589, 23209, NaN
1471572107.144, 0.00537096569314599, -0.0136901931837201, 0.00484062684699893, 33700, 32580, 23200, NaN
1471572108.144, 0.00259540136903524, -0.013776128180325, 0.00552298128604889, 33693, 32571, 23201, NaN
1471572109.144, 0.000172847809153609, -0.0141452262178063, 0.00584350619465113, 33685, 32565, 23212, NaN
1471572110.144, 0.00183687044773251, -0.0139700323343277, 0.00533473631367087, 33687, 32581, 23201, 119.896781921387
1471572110.144, 0.0109734628349543, -0.0140062384307384, 0.00524398731067777, 33692, 32594, 23206, NaN
1471572111.148, 0.0259175188839436, -0.0133740827441216, 0.0052912007085979, 33690, 32577, 23198, NaN
1471572112.148, 0.0449895150959492, -0.0138107184320688, 0.00580794829875231, 33690, 32590, 23207, NaN
1471572113.148, 0.0667099729180336, -0.014124782755971, 0.00484740408137441, 33684, 32580, 23213, NaN
1471572114.148, 0.0898812785744667, -0.013146448880434, 0.00494606466963887, 33686, 32582, 23200, NaN
1471572115.148, 0.113649323582649, -0.0125516885891557, 0.00568268727511168, 33686, 32583, 23208, NaN
1471572116.148, 0.137057542800903, -0.0124678323045373, 0.00573997711762786, 33688, 32567, 23198, NaN
1471572117.156, 0.158918678760529, -0.0116965053603053, 0.00621439982205629, 33693, 32578, 23201, NaN
1471572118.156, 0.179125353693962, -0.011738084256649, 0.00633990811184049, 33683, 32574, 23213, NaN
1471572119.156, 0.197395086288452, -0.0117477755993605, 0.00567224156111479, 33703, 32590, 23207, NaN
1471572119.156, 0.213164761662483, -0.0113882152363658, 0.0051563479937613, 33696, 32576, 23193, NaN
1471572120.162, 0.226546913385391, -0.0118009019643068, 0.00542030949145555, 33694, 32567, 23206, NaN
1471572121.162, 0.235936537384987, -0.0114179365336895, 0.00502912467345595, 33691, 32574, 23208, NaN
1471572122.162, 0.242245778441429, -0.0125795202329755, 0.00510100461542606, 33696, 32570, 23205, NaN
1471572123.162, 0.246174708008766, -0.0130298724398017, 0.00494070863351226, 33702, 32579, 23206, NaN
1471572124.162, 0.247494176030159, -0.0125337326899171, 0.00541144935414195, 33692, 32582, 23202, NaN
1471572125.162, 0.245701476931572, -0.0116724111139774, 0.00603728229179978, 33687, 32571, 23202, NaN
1471572126.162, 0.241528391838074, -0.0113973505795002, 0.00629535922780633, 33692, 32578, 23209, NaN
1471572127.162, 0.235368013381958, -0.0116940755397081, 0.00683421920984983, 33695, 32562, 23197, NaN
1471572128.172, 0.226925224065781, -0.0115106170997024, 0.00702748727053404, 33683, 32584, 23208, NaN
1471572128.172, 0.217131197452545, -0.0112460153177381, 0.00739121064543724, 33676, 32575, 23200, NaN
1471572129.18, 0.205488130450249, -0.0115810679271817, 0.0075714373961091, 33704, 32584, 23206, NaN
1471572130.16, 0.193507462739944, -0.0109812691807747, 0.00852864235639572, 33700, 32580, 23203, NaN
1471572131.16, 0.182804226875305, -0.0108398105949163, 0.00820773653686047, 33694, 32573, 23198, NaN
1471572132.16, 0.174457043409348, -0.0110615007579327, 0.00838406197726727, 33700, 32576, 23205, NaN
1471572133.16, 0.168723419308662, -0.0119449328631163, 0.00813187286257744, 33699, 32590, 23211, NaN
1471572134.16, 0.165514558553696, -0.0114232329651713, 0.00877935998141766, 33690, 32590, 23206, NaN
1471572135.16, 0.164288029074669, -0.0113199222832918, 0.00905310548841953, 33710, 32574, 23206, NaN
1471572136.16, 0.164410963654518, -0.0119796600192785, 0.00893680937588215, 33698, 32587, 23203, NaN
1471572137.16, 0.135645031929016, -0.0117941228672862, 0.00899758283048868, 33705, 32579, 23200, NaN
1471572138.16, 0.102698907256126, -0.0111829107627273, 0.0107887489721179, 33680, 32577, 23209, NaN
1471572139.168, 0.0732743218541145, -0.0109442677348852, 0.0101610105484724, 33693, 32573, 23206, NaN
1471572140.168, 0.0472553409636021, -0.010695586912334, 0.0108131337910891, 33681, 32570, 23210, NaN
1471572141.168, 0.0245053321123123, -0.0104637825861573, 0.0111344810575247, 33698, 32556, 23195, NaN
1471572142.168, 0.00486952252686024, -0.0100206276401877, 0.0114948619157076, 33680, 32591, 23211, NaN
1471572143.168, -0.0118222292512655, -0.0099569633603096, 0.0123454481363297, 33687, 32574, 23212, NaN
1471572144.168, -0.0257525723427534, -0.00959797855466604, 0.0134154120460153, 33688, 32570, 23201, NaN
1471572145.168, -0.0371137857437134, -0.00973685085773468, 0.0130749745294452, 33707, 32585, 23203, NaN
1471572146.168, -0.0461049415171146, -0.00855253916233778, 0.0135256666690111, 33696, 32572, 23211, NaN
1471572147.168, -0.052929162979126, -0.00814331974834204, 0.0123018343001604, 33682, 32591, 23212, NaN
1471572148.168, -0.0577910281717777, -0.00719244824722409, 0.0118035487830639, 33699, 32574, 23205, NaN
1471572149.168, -0.0608941540122032, -0.00751653173938394, 0.0113001940771937, 33675, 32583, 23208, NaN
1471572150.168, -0.0624389871954918, -0.00776450475677848, 0.0120853604748845, 33696, 32577, 23197, NaN
1471572151.178, -0.0626208335161209, -0.00746715907007456, 0.0122888302430511, 33684, 32580, 23202, NaN
1471572151.178, -0.0616280809044838, -0.00733106397092342, 0.0127334911376238, 33687, 32570, 23206, NaN
1471572152.186, -0.0596407316625118, -0.00726748676970601, 0.0125053115189075, 33688, 32570, 23207, NaN
1471572153.186, -0.0568291284143925, -0.00746272969990969, 0.0130515554919839, 33683, 32579, 23207, NaN
1471572154.186, -0.0533529482781887, -0.00777919357642531, 0.0134887341409922, 33688, 32572, 23202, NaN
1471572155.186, -0.0493604205548763, -0.00793186761438847, 0.0127206426113844, 33692, 32579, 23200, NaN
1471572156.186, -0.0449877604842186, -0.00851530395448208, 0.0128316190093756, 33689, 32582, 23207, NaN
1471572157.186, -0.0403588488698006, -0.00791714433580637, 0.0125574637204409, 33701, 32581, 23194, NaN
1471572158.186, -0.0355850420892239, -0.00819012057036161, 0.0128176622092724, 33696, 32588, 23200, NaN
1471572159.186, -0.0307652372866869, -0.00851943530142307, 0.0128715187311172, 33673, 32579, 23209, NaN
1471572160.186, -0.0259860157966614, -0.00842419732362032, 0.0118290511891246, 33698, 32577, 23196, NaN
1471572161.186, -0.0213219914585352, -0.00949018076062202, 0.0116970064118505, 33681, 32562, 23216, NaN
1471572162.194, -0.0168362464755774, -0.00951352994889021, 0.0109751624986529, 33679, 32577, 23214, NaN
1471572163.194, -0.0125808790326118, -0.00904158689081669, 0.0111322430893779, 33692, 32568, 23214, NaN
1471572164.194, -0.00859763193875551, -0.00831290986388922, 0.0107646677643061, 33685, 32573, 23212, NaN
1471572165.194, -0.00491859065368772, -0.00761684961616993, 0.0106678353622556, 33707, 32581, 23206, NaN
1471572165.194, -0.00156693195458502, -0.00788293499499559, 0.0100576495751739, 33691, 32574, 23207, 116.92359161377
1471572166.2, 0.00137732597067952, -0.00836722273379564, 0.0106920190155506, 33710, 32575, 23193, NaN
1471572167.2, 0.00329475570470095, -0.0086086792871356, 0.010350750759244, 33696, 32570, 23196, NaN
1471572168.2, 0.00368510652333498, -0.00887448620051146, 0.0104072047397494, 33704, 32583, 23208, NaN
1471572169.2, 0.00232324399985373, -0.00917108822613955, 0.0105298394337296, 33689, 32578, 23192, NaN
1471572170.2, 0.000864383880980313, -0.00895758159458637, 0.0107922926545143, 33692, 32589, 23195, NaN
1471572171.2, -0.000185311277164146, -0.00837976019829512, 0.0109372064471245, 33698, 32581, 23183, NaN
1471572172.21, -0.000913819647394121, -0.00713938986882567, 0.0114336498081684, 33680, 32566, 23201, NaN
1471572173.21, -0.00106748670805246, -0.00752275343984365, 0.0118651557713747, 33695, 32583, 23200, NaN
1471572174.21, -0.00221665343269706, -0.00778950657695532, 0.0108303753659129, 33684, 32576, 23206, NaN
1471572174.21, -0.00354401511140168, -0.00716855376958847, 0.0112650683149695, 33694, 32575, 23204, NaN
1471572175.216, -0.00333000649698079, -0.00731593277305365, 0.0120957726612687, 33684, 32578, 23205, NaN
1471572176.216, -0.00149766879621893, -0.00829447899013758, 0.0123663740232587, 33696, 32577, 23191, NaN
1471572177.216, 0.00021511888189707, -0.00863400567322969, 0.0118451025336981, 33680, 32578, 23208, NaN
1471572178.216, 0.00212487764656544, -0.00897578615695238, 0.0113742649555206, 33699, 32565, 23198, NaN
1471572178.216, 0.00503916153684258, -0.0096364039927721, 0.0115423332899809, 33687, 32579, 23215, NaN
1471572179.218, 0.00711991870775819, -0.00977140385657549, 0.0111810462549329, 33684, 32570, 23201, NaN
1471572180.218, 0.0087283980101347, -0.00941797252744436, 0.0108942296355963, 33708, 32575, 23190, NaN
1471572181.218, 0.0106006385758519, -0.00923883356153965, 0.0107107432559133, 33697, 32586, 23194, NaN
1471572182.226, 0.0122242560610175, -0.00897111557424068, 0.0111377825960517, 33692, 32577, 23200, NaN
1471572182.226, 0.0134806893765926, -0.00906474515795708, 0.0114723574370146, 33687, 32585, 23204, NaN
1471572183.234, 0.0154624842107296, -0.00935977324843407, 0.0120619395747781, 33688, 32583, 23211, NaN
1471572184.234, 0.0170126799494028, -0.0102141844108701, 0.0113828564062715, 33704, 32576, 23197, NaN
1471572185.234, 0.018242446705699, -0.010337651707232, 0.0108385039493442, 33690, 32586, 23192, NaN
1471572186.234, 0.0194341577589512, -0.0103255836293101, 0.0107945529744029, 33698, 32577, 23208, NaN
1471572186.234, 0.019879013299942, -0.0106076458469033, 0.0107416156679392, 33683, 32570, 23211, NaN
1471572187.238, 0.0205834023654461, -0.0107100820168853, 0.0107757207006216, 33691, 32573, 23199, NaN
1471572188.238, 0.0205002725124359, -0.00982645526528358, 0.0114353401586413, 33680, 32591, 23201, NaN
1471572189.238, 0.0193947330117226, -0.00954453181475401, 0.0111095812171698, 33702, 32571, 23202, NaN
1471572190.238, 0.0179107692092657, -0.00917197484523058, 0.0111722238361835, 33689, 32584, 23213, NaN
1471572191.238, 0.0161101911216974, -0.00916570704430342, 0.0112326024100184, 33674, 32583, 23217, NaN
1471572192.246, 0.0151432016864419, -0.00952999200671911, 0.0114179532974958, 33687, 32571, 23199, NaN
1471572193.246, 0.0152542348951101, -0.00882977526634932, 0.010672296397388, 33682, 32574, 23198, NaN
1471572194.246, 0.015837823972106, -0.00837591011077166, 0.0103604486212134, 33675, 32582, 23209, NaN
1471572195.246, 0.0150202419608831, -0.00811126176267862, 0.0103287575766444, 33688, 32584, 23197, NaN
1471572196.246, 0.0132580697536469, -0.00858555268496275, 0.0097668394446373, 33696, 32584, 23196, NaN
1471572197.246, 0.0118833854794502, -0.00928110536187887, 0.00916690938174725, 33709, 32580, 23197, NaN
1471572198.246, 0.0108497934415936, -0.00834787357598543, 0.00995475240051746, 33694, 32587, 23192, NaN
1471572199.246, 0.0102791488170624, -0.00878749508410692, 0.0100063169375062, 33699, 32580, 23206, NaN
1471572200.246, 0.00871171336621046, -0.00908168591558933, 0.0101278610527515, 33680, 32574, 23216, NaN
1471572201.246, 0.00605080556124449, -0.00895584654062986, 0.0106004495173693, 33676, 32585, 23209, NaN
1471572202.246, 0.00277807610109448, -0.00933794211596251, 0.011526906862855, 33691, 32568, 23205, NaN
1471572203.246, -5.87577233090997e-05, -0.00861723069101572, 0.0118928058072925, 33689, 32568, 23211, NaN
1471572204.256, -0.00198695552535355, -0.00919701065868139, 0.0121847959235311, 33685, 32585, 23203, NaN
1471572204.256, -0.00338314892724156, -0.00813701469451189, 0.0120221367105842, 33682, 32574, 23197, NaN
1471572205.264, -0.00411978969350457, -0.0083938455209136, 0.0124273104593158, 33689, 32582, 23197, NaN
1471572206.264, -0.00484257284551859, -0.00832069013267756, 0.0123683139681816, 33700, 32582, 23189, NaN
1471572207.264, -0.00443159602582455, -0.00828243792057037, 0.012404115870595, 33691, 32573, 23204, NaN
1471572208.264, -0.00361150712706149, -0.00806901417672634, 0.0120934583246708, 33707, 32576, 23189, NaN
1471572209.264, -0.00357571872882545, -0.00795835442841053, 0.0121309570968151, 33666, 32575, 23209, NaN
1471572210.264, -0.00305470894090831, -0.00753645040094852, 0.0117916539311409, 33687, 32576, 23217, NaN